Year,Month,Day,Hour,Minute,Value (Times are PST for temperature in C)
2014,10,11,00,00,10.10
2014,10,11,00,01,10.00
2014,10,11,00,02,10.00
2014,10,11,00,03,10.20
2014,10,11,00,04,10.20
2014,10,11,00,05,10.30
2014,10,11,00,06,10.30
2014,10,11,00,07,10.30
2014,10,11,00,08,10.30
2014,10,11,00,09,10.30
2014,10,11,00,10,10.20
2014,10,11,00,11,10.20
2014,10,11,00,12,10.20
2014,10,11,00,13,10.10
2014,10,11,00,14,10.10
2014,10,11,00,15,10.10
2014,10,11,00,16,10.00
2014,10,11,00,17,9.90
2014,10,11,00,18,9.80
2014,10,11,00,19,9.80
2014,10,11,00,20,9.70
2014,10,11,00,21,9.70
2014,10,11,00,22,9.70
2014,10,11,00,23,9.80
2014,10,11,00,24,9.80
2014,10,11,00,25,9.80
2014,10,11,00,26,9.80
2014,10,11,00,27,9.90
2014,10,11,00,28,9.90
2014,10,11,00,29,10.00
2014,10,11,00,30,10.10
2014,10,11,00,31,10.10
2014,10,11,00,32,10.10
2014,10,11,00,33,10.10
2014,10,11,00,34,10.10
2014,10,11,00,35,10.10
2014,10,11,00,36,10.20
2014,10,11,00,37,10.20
2014,10,11,00,38,10.20
2014,10,11,00,39,10.20
2014,10,11,00,40,10.20
2014,10,11,00,41,10.30
2014,10,11,00,42,10.30
2014,10,11,00,43,10.30
2014,10,11,00,44,10.40
2014,10,11,00,45,10.40
2014,10,11,00,46,10.50
2014,10,11,00,47,10.50
2014,10,11,00,48,10.50
2014,10,11,00,49,10.40
2014,10,11,00,50,10.40
2014,10,11,00,51,10.50
2014,10,11,00,52,10.60
2014,10,11,00,53,10.70
2014,10,11,00,54,10.80
2014,10,11,00,55,10.80
2014,10,11,00,56,10.70
2014,10,11,00,57,10.60
2014,10,11,00,58,10.60
2014,10,11,00,59,10.70
2014,10,11,01,00,10.70
2014,10,11,01,01,10.70
2014,10,11,01,02,10.70
2014,10,11,01,03,10.60
2014,10,11,01,04,10.60
2014,10,11,01,05,10.50
2014,10,11,01,06,10.40
2014,10,11,01,07,10.30
2014,10,11,01,08,10.20
2014,10,11,01,09,10.20
2014,10,11,01,10,10.20
2014,10,11,01,11,10.30
2014,10,11,01,12,10.30
2014,10,11,01,13,10.30
2014,10,11,01,14,10.30
2014,10,11,01,15,10.20
2014,10,11,01,16,10.20
2014,10,11,01,17,10.20
2014,10,11,01,18,10.30
2014,10,11,01,19,10.40
2014,10,11,01,20,10.40
2014,10,11,01,21,10.50
2014,10,11,01,22,10.40
2014,10,11,01,23,10.40
2014,10,11,01,24,10.30
2014,10,11,01,25,10.30
2014,10,11,01,26,10.40
2014,10,11,01,27,10.50
2014,10,11,01,28,10.50
2014,10,11,01,29,10.60
2014,10,11,01,30,10.60
2014,10,11,01,31,10.70
2014,10,11,01,32,10.70
2014,10,11,01,33,10.70
2014,10,11,01,34,10.60
2014,10,11,01,35,10.60
2014,10,11,01,36,10.60
2014,10,11,01,37,10.60
2014,10,11,01,38,10.60
2014,10,11,01,39,10.70
2014,10,11,01,40,10.80
2014,10,11,01,41,10.90
2014,10,11,01,42,10.90
2014,10,11,01,43,10.90
2014,10,11,01,44,10.90
2014,10,11,01,45,10.80
2014,10,11,01,46,10.80
2014,10,11,01,47,10.80
2014,10,11,01,48,10.80
2014,10,11,01,49,10.80
2014,10,11,01,50,10.70
2014,10,11,01,51,10.70
2014,10,11,01,52,10.70
2014,10,11,01,53,10.60
2014,10,11,01,54,10.70
2014,10,11,01,55,10.70
2014,10,11,01,56,10.70
2014,10,11,01,57,10.70
2014,10,11,01,58,10.70
2014,10,11,01,59,10.70
2014,10,11,02,00,10.80
2014,10,11,02,01,10.70
2014,10,11,02,02,10.70
2014,10,11,02,03,10.60
2014,10,11,02,04,10.60
2014,10,11,02,05,10.70
2014,10,11,02,06,10.70
2014,10,11,02,07,10.60
2014,10,11,02,08,10.60
2014,10,11,02,09,10.50
2014,10,11,02,10,10.50
2014,10,11,02,11,10.50
2014,10,11,02,12,10.50
2014,10,11,02,13,10.50
2014,10,11,02,14,10.50
2014,10,11,02,15,10.50
2014,10,11,02,16,10.40
2014,10,11,02,17,10.40
2014,10,11,02,18,10.40
2014,10,11,02,19,10.30
2014,10,11,02,20,10.30
2014,10,11,02,21,10.30
2014,10,11,02,22,10.20
2014,10,11,02,23,10.20
2014,10,11,02,24,10.10
2014,10,11,02,25,10.10
2014,10,11,02,26,10.10
2014,10,11,02,27,10.10
2014,10,11,02,28,10.10
2014,10,11,02,29,10.10
2014,10,11,02,30,10.00
2014,10,11,02,31,10.00
2014,10,11,02,32,10.00
2014,10,11,02,33,10.00
2014,10,11,02,34,9.90
2014,10,11,02,35,9.90
2014,10,11,02,36,9.90
2014,10,11,02,37,9.90
2014,10,11,02,38,9.90
2014,10,11,02,39,9.90
2014,10,11,02,40,9.80
2014,10,11,02,41,9.80
2014,10,11,02,42,9.80
2014,10,11,02,43,9.80
2014,10,11,02,44,9.70
2014,10,11,02,45,9.70
2014,10,11,02,46,9.70
2014,10,11,02,47,9.70
2014,10,11,02,48,9.70
2014,10,11,02,49,9.70
2014,10,11,02,50,9.70
2014,10,11,02,51,9.60
2014,10,11,02,52,9.60
2014,10,11,02,53,9.60
2014,10,11,02,54,9.50
2014,10,11,02,55,9.50
2014,10,11,02,56,9.60
2014,10,11,02,57,9.60
2014,10,11,02,58,9.50
2014,10,11,02,59,9.50
2014,10,11,03,00,9.50
2014,10,11,03,01,9.40
2014,10,11,03,02,9.40
2014,10,11,03,03,9.50
2014,10,11,03,04,9.50
2014,10,11,03,05,9.50
2014,10,11,03,06,9.60
2014,10,11,03,07,9.60
2014,10,11,03,08,9.60
2014,10,11,03,09,9.60
2014,10,11,03,10,9.50
2014,10,11,03,11,9.50
2014,10,11,03,12,9.50
2014,10,11,03,13,9.40
2014,10,11,03,14,9.40
2014,10,11,03,15,9.40
2014,10,11,03,16,9.40
2014,10,11,03,17,9.30
2014,10,11,03,18,9.30
2014,10,11,03,19,9.30
2014,10,11,03,20,9.30
2014,10,11,03,21,9.30
2014,10,11,03,22,9.30
2014,10,11,03,23,9.30
2014,10,11,03,24,9.30
2014,10,11,03,25,9.30
2014,10,11,03,26,9.30
2014,10,11,03,27,9.30
2014,10,11,03,28,9.30
2014,10,11,03,29,9.30
2014,10,11,03,30,9.30
2014,10,11,03,31,9.30
2014,10,11,03,32,9.20
2014,10,11,03,33,9.20
2014,10,11,03,34,9.10
2014,10,11,03,35,9.10
2014,10,11,03,36,9.10
2014,10,11,03,37,9.00
2014,10,11,03,38,9.00
2014,10,11,03,39,9.00
2014,10,11,03,40,9.00
2014,10,11,03,41,8.90
2014,10,11,03,42,8.90
2014,10,11,03,43,8.90
2014,10,11,03,44,8.80
2014,10,11,03,45,8.80
2014,10,11,03,46,8.80
2014,10,11,03,47,8.70
2014,10,11,03,48,8.70
2014,10,11,03,49,8.70
2014,10,11,03,50,8.70
2014,10,11,03,51,8.70
2014,10,11,03,52,8.80
2014,10,11,03,53,9.00
2014,10,11,03,54,9.10
2014,10,11,03,55,9.10
2014,10,11,03,56,9.00
2014,10,11,03,57,9.00
2014,10,11,03,58,8.90
2014,10,11,03,59,8.80
2014,10,11,04,00,8.80
2014,10,11,04,01,8.70
2014,10,11,04,02,8.70
2014,10,11,04,03,8.80
2014,10,11,04,04,8.70
2014,10,11,04,05,8.70
2014,10,11,04,06,8.70
2014,10,11,04,07,8.70
2014,10,11,04,08,8.70
2014,10,11,04,09,8.70
2014,10,11,04,10,8.60
2014,10,11,04,11,8.60
2014,10,11,04,12,8.60
2014,10,11,04,13,8.60
2014,10,11,04,14,8.60
2014,10,11,04,15,8.60
2014,10,11,04,16,8.60
2014,10,11,04,17,8.60
2014,10,11,04,18,8.60
2014,10,11,04,19,8.60
2014,10,11,04,20,8.80
2014,10,11,04,21,8.80
2014,10,11,04,22,8.80
2014,10,11,04,23,8.80
2014,10,11,04,24,8.80
2014,10,11,04,25,8.90
2014,10,11,04,26,9.00
2014,10,11,04,27,9.10
2014,10,11,04,28,9.30
2014,10,11,04,29,9.30
2014,10,11,04,30,9.40
2014,10,11,04,31,9.40
2014,10,11,04,32,9.40
2014,10,11,04,33,9.40
2014,10,11,04,34,9.40
2014,10,11,04,35,9.30
2014,10,11,04,36,9.20
2014,10,11,04,37,9.20
2014,10,11,04,38,9.20
2014,10,11,04,39,9.30
2014,10,11,04,40,9.40
2014,10,11,04,41,9.40
2014,10,11,04,42,9.40
2014,10,11,04,43,9.50
2014,10,11,04,44,9.70
2014,10,11,04,45,9.70
2014,10,11,04,46,9.70
2014,10,11,04,47,9.70
2014,10,11,04,48,9.60
2014,10,11,04,49,9.50
2014,10,11,04,50,9.50
2014,10,11,04,51,9.50
2014,10,11,04,52,9.50
2014,10,11,04,53,9.50
2014,10,11,04,54,9.50
2014,10,11,04,55,9.60
2014,10,11,04,56,9.60
2014,10,11,04,57,9.70
2014,10,11,04,58,9.80
2014,10,11,04,59,9.80
2014,10,11,05,00,9.80
2014,10,11,05,01,9.80
2014,10,11,05,02,9.80
2014,10,11,05,03,9.90
2014,10,11,05,04,9.90
2014,10,11,05,05,9.90
2014,10,11,05,06,9.90
2014,10,11,05,07,9.90
2014,10,11,05,08,9.90
2014,10,11,05,09,9.90
2014,10,11,05,10,10.00
2014,10,11,05,11,10.00
2014,10,11,05,12,10.00
2014,10,11,05,13,9.90
2014,10,11,05,14,9.90
2014,10,11,05,15,10.00
2014,10,11,05,16,10.00
2014,10,11,05,17,9.90
2014,10,11,05,18,9.90
2014,10,11,05,19,10.00
2014,10,11,05,20,10.00
2014,10,11,05,21,10.10
2014,10,11,05,22,10.10
2014,10,11,05,23,10.10
2014,10,11,05,24,10.10
2014,10,11,05,25,10.20
2014,10,11,05,26,10.20
2014,10,11,05,27,10.20
2014,10,11,05,28,10.20
2014,10,11,05,29,10.20
2014,10,11,05,30,10.20
2014,10,11,05,31,10.20
2014,10,11,05,32,10.10
2014,10,11,05,33,10.10
2014,10,11,05,34,10.10
2014,10,11,05,35,10.10
2014,10,11,05,36,10.10
2014,10,11,05,37,10.10
2014,10,11,05,38,10.10
2014,10,11,05,39,10.10
2014,10,11,05,40,10.10
2014,10,11,05,41,10.10
2014,10,11,05,42,10.10
2014,10,11,05,43,10.10
2014,10,11,05,44,10.10
2014,10,11,05,45,10.10
2014,10,11,05,46,10.00
2014,10,11,05,47,10.10
2014,10,11,05,48,10.10
2014,10,11,05,49,10.10
2014,10,11,05,50,10.20
2014,10,11,05,51,10.20
2014,10,11,05,52,10.20
2014,10,11,05,53,10.20
2014,10,11,05,54,10.20
2014,10,11,05,55,10.20
2014,10,11,05,56,10.20
2014,10,11,05,57,10.20
2014,10,11,05,58,10.20
2014,10,11,05,59,10.10
2014,10,11,06,00,10.20
2014,10,11,06,01,10.20
2014,10,11,06,02,10.20
2014,10,11,06,03,10.20
2014,10,11,06,04,10.20
2014,10,11,06,05,10.20
2014,10,11,06,06,10.20
2014,10,11,06,07,10.20
2014,10,11,06,08,10.30
2014,10,11,06,09,10.30
2014,10,11,06,10,10.20
2014,10,11,06,11,10.20
2014,10,11,06,12,10.20
2014,10,11,06,13,10.20
2014,10,11,06,14,10.20
2014,10,11,06,15,10.30
2014,10,11,06,16,10.30
2014,10,11,06,17,10.30
2014,10,11,06,18,10.30
2014,10,11,06,19,10.30
2014,10,11,06,20,10.30
2014,10,11,06,21,10.30
2014,10,11,06,22,10.40
2014,10,11,06,23,10.40
2014,10,11,06,24,10.40
2014,10,11,06,25,10.40
2014,10,11,06,26,10.40
2014,10,11,06,27,10.50
2014,10,11,06,28,10.60
2014,10,11,06,29,10.60
2014,10,11,06,30,10.70
2014,10,11,06,31,10.70
2014,10,11,06,32,10.80
2014,10,11,06,33,10.80
2014,10,11,06,34,10.80
2014,10,11,06,35,10.80
2014,10,11,06,36,10.80
2014,10,11,06,37,10.80
2014,10,11,06,38,10.80
2014,10,11,06,39,10.90
2014,10,11,06,40,10.90
2014,10,11,06,41,10.90
2014,10,11,06,42,10.90
2014,10,11,06,43,10.90
2014,10,11,06,44,10.90
2014,10,11,06,45,11.00
2014,10,11,06,46,11.10
2014,10,11,06,47,11.20
2014,10,11,06,48,11.20
2014,10,11,06,49,11.20
2014,10,11,06,50,11.30
2014,10,11,06,51,11.30
2014,10,11,06,52,11.30
2014,10,11,06,53,11.30
2014,10,11,06,54,11.30
2014,10,11,06,55,11.30
2014,10,11,06,56,11.30
2014,10,11,06,57,11.30
2014,10,11,06,58,11.30
2014,10,11,06,59,11.40
2014,10,11,07,00,11.40
2014,10,11,07,01,11.40
2014,10,11,07,02,11.40
2014,10,11,07,03,11.40
2014,10,11,07,04,11.40
2014,10,11,07,05,11.40
2014,10,11,07,06,11.50
2014,10,11,07,07,11.50
2014,10,11,07,08,11.50
2014,10,11,07,09,11.50
2014,10,11,07,10,11.50
2014,10,11,07,11,11.50
2014,10,11,07,12,11.60
2014,10,11,07,13,11.60
2014,10,11,07,14,11.60
2014,10,11,07,15,11.60
2014,10,11,07,16,11.60
2014,10,11,07,17,11.60
2014,10,11,07,18,11.60
2014,10,11,07,19,11.60
2014,10,11,07,20,11.60
2014,10,11,07,21,11.60
2014,10,11,07,22,11.60
2014,10,11,07,23,11.60
2014,10,11,07,24,11.60
2014,10,11,07,25,11.60
2014,10,11,07,26,11.60
2014,10,11,07,27,11.60
2014,10,11,07,28,11.60
2014,10,11,07,29,11.60
2014,10,11,07,30,11.60
2014,10,11,07,31,11.60
2014,10,11,07,32,11.60
2014,10,11,07,33,11.60
2014,10,11,07,34,11.60
2014,10,11,07,35,11.60
2014,10,11,07,36,11.60
2014,10,11,07,37,11.60
2014,10,11,07,38,11.60
2014,10,11,07,39,11.60
2014,10,11,07,40,11.60
2014,10,11,07,41,11.60
2014,10,11,07,42,11.60
2014,10,11,07,43,11.60
2014,10,11,07,44,11.60
2014,10,11,07,45,11.60
2014,10,11,07,46,11.60
2014,10,11,07,47,11.60
2014,10,11,07,48,11.60
2014,10,11,07,49,11.60
2014,10,11,07,50,11.60
2014,10,11,07,51,11.60
2014,10,11,07,52,11.60
2014,10,11,07,53,11.60
2014,10,11,07,54,11.50
2014,10,11,07,55,11.50
2014,10,11,07,56,11.50
2014,10,11,07,57,11.50
2014,10,11,07,58,11.50
2014,10,11,07,59,11.40
2014,10,11,08,00,11.40
2014,10,11,08,01,11.40
2014,10,11,08,02,11.40
2014,10,11,08,03,11.40
2014,10,11,08,04,11.40
2014,10,11,08,05,11.40
2014,10,11,08,06,11.40
2014,10,11,08,07,11.40
2014,10,11,08,08,11.40
2014,10,11,08,09,11.30
2014,10,11,08,10,11.30
2014,10,11,08,11,11.30
2014,10,11,08,12,11.30
2014,10,11,08,13,11.30
2014,10,11,08,14,11.30
2014,10,11,08,15,11.20
2014,10,11,08,16,11.20
2014,10,11,08,17,11.20
2014,10,11,08,18,11.20
2014,10,11,08,19,11.20
2014,10,11,08,20,11.20
2014,10,11,08,21,11.20
2014,10,11,08,22,11.20
2014,10,11,08,23,11.20
2014,10,11,08,24,11.20
2014,10,11,08,25,11.20
2014,10,11,08,26,11.20
2014,10,11,08,27,11.20
2014,10,11,08,28,11.20
2014,10,11,08,29,11.20
2014,10,11,08,30,11.20
2014,10,11,08,31,11.20
2014,10,11,08,32,11.20
2014,10,11,08,33,11.20
2014,10,11,08,34,11.20
2014,10,11,08,35,11.20
2014,10,11,08,36,11.20
2014,10,11,08,37,11.20
2014,10,11,08,38,11.20
2014,10,11,08,39,11.20
2014,10,11,08,40,11.20
2014,10,11,08,41,11.20
2014,10,11,08,42,11.20
2014,10,11,08,43,11.20
2014,10,11,08,44,11.20
2014,10,11,08,45,11.20
2014,10,11,08,46,11.20
2014,10,11,08,47,11.20
2014,10,11,08,48,11.20
2014,10,11,08,49,11.20
2014,10,11,08,50,11.20
2014,10,11,08,51,11.20
2014,10,11,08,52,11.20
2014,10,11,08,53,11.20
2014,10,11,08,54,11.20
2014,10,11,08,55,11.30
2014,10,11,08,56,11.30
2014,10,11,08,57,11.30
2014,10,11,08,58,11.30
2014,10,11,08,59,11.30
2014,10,11,09,00,11.40
2014,10,11,09,01,11.40
2014,10,11,09,02,11.40
2014,10,11,09,03,11.40
2014,10,11,09,04,11.40
2014,10,11,09,05,11.40
2014,10,11,09,06,11.40
2014,10,11,09,07,11.50
2014,10,11,09,08,11.50
2014,10,11,09,09,11.60
2014,10,11,09,10,11.60
2014,10,11,09,11,11.60
2014,10,11,09,12,11.60
2014,10,11,09,13,11.60
2014,10,11,09,14,11.60
2014,10,11,09,15,11.70
2014,10,11,09,16,11.70
2014,10,11,09,17,11.70
2014,10,11,09,18,11.80
2014,10,11,09,19,11.80
2014,10,11,09,20,11.80
2014,10,11,09,21,11.80
2014,10,11,09,22,11.90
2014,10,11,09,23,11.90
2014,10,11,09,24,11.90
2014,10,11,09,25,11.90
2014,10,11,09,26,11.90
2014,10,11,09,27,11.90
2014,10,11,09,28,11.90
2014,10,11,09,29,11.90
2014,10,11,09,30,11.90
2014,10,11,09,31,11.90
2014,10,11,09,32,11.90
2014,10,11,09,33,11.90
2014,10,11,09,34,11.90
2014,10,11,09,35,11.90
2014,10,11,09,36,12.00
2014,10,11,09,37,11.90
2014,10,11,09,38,11.90
2014,10,11,09,39,11.90
2014,10,11,09,40,11.90
2014,10,11,09,41,11.90
2014,10,11,09,42,11.80
2014,10,11,09,43,11.80
2014,10,11,09,44,11.80
2014,10,11,09,45,11.80
2014,10,11,09,46,11.80
2014,10,11,09,47,11.90
2014,10,11,09,48,11.90
2014,10,11,09,49,11.90
2014,10,11,09,50,11.90
2014,10,11,09,51,12.00
2014,10,11,09,52,12.00
2014,10,11,09,53,12.00
2014,10,11,09,54,12.00
2014,10,11,09,55,12.00
2014,10,11,09,56,12.10
2014,10,11,09,57,12.10
2014,10,11,09,58,12.10
2014,10,11,09,59,12.10
2014,10,11,10,00,12.10
2014,10,11,10,01,12.10
2014,10,11,10,02,12.10
2014,10,11,10,03,12.10
2014,10,11,10,04,12.10
2014,10,11,10,05,12.10
2014,10,11,10,06,12.10
2014,10,11,10,07,12.10
2014,10,11,10,08,12.10
2014,10,11,10,09,12.10
2014,10,11,10,10,12.00
2014,10,11,10,11,12.00
2014,10,11,10,12,11.90
2014,10,11,10,13,11.90
2014,10,11,10,14,11.90
2014,10,11,10,15,11.90
2014,10,11,10,16,11.80
2014,10,11,10,17,11.80
2014,10,11,10,18,11.80
2014,10,11,10,19,11.80
2014,10,11,10,20,11.80
2014,10,11,10,21,11.80
2014,10,11,10,22,11.80
2014,10,11,10,23,11.80
2014,10,11,10,24,11.80
2014,10,11,10,25,11.80
2014,10,11,10,26,11.80
2014,10,11,10,27,11.80
2014,10,11,10,28,11.90
2014,10,11,10,29,11.90
2014,10,11,10,30,11.90
2014,10,11,10,31,11.90
2014,10,11,10,32,11.90
2014,10,11,10,33,11.90
2014,10,11,10,34,12.00
2014,10,11,10,35,12.00
2014,10,11,10,36,12.00
2014,10,11,10,37,12.00
2014,10,11,10,38,12.10
2014,10,11,10,39,12.10
2014,10,11,10,40,12.10
2014,10,11,10,41,12.10
2014,10,11,10,42,12.20
2014,10,11,10,43,12.20
2014,10,11,10,44,12.20
2014,10,11,10,45,12.20
2014,10,11,10,46,12.30
2014,10,11,10,47,12.30
2014,10,11,10,48,12.40
2014,10,11,10,49,12.50
2014,10,11,10,50,12.60
2014,10,11,10,51,12.70
2014,10,11,10,52,12.80
2014,10,11,10,53,12.90
2014,10,11,10,54,13.00
2014,10,11,10,55,13.10
2014,10,11,10,56,13.20
2014,10,11,10,57,13.20
2014,10,11,10,58,13.20
2014,10,11,10,59,13.20
2014,10,11,11,00,13.20
2014,10,11,11,01,13.20
2014,10,11,11,02,13.30
2014,10,11,11,03,13.40
2014,10,11,11,04,13.60
2014,10,11,11,05,13.70
2014,10,11,11,06,13.80
2014,10,11,11,07,13.90
2014,10,11,11,08,14.00
2014,10,11,11,09,14.10
2014,10,11,11,10,14.10
2014,10,11,11,11,14.10
2014,10,11,11,12,14.20
2014,10,11,11,13,14.20
2014,10,11,11,14,14.30
2014,10,11,11,15,14.40
2014,10,11,11,16,14.40
2014,10,11,11,17,14.40
2014,10,11,11,18,14.50
2014,10,11,11,19,14.60
2014,10,11,11,20,14.70
2014,10,11,11,21,14.80
2014,10,11,11,22,14.80
2014,10,11,11,23,14.80
2014,10,11,11,24,14.80
2014,10,11,11,25,14.80
2014,10,11,11,26,14.80
2014,10,11,11,27,14.80
2014,10,11,11,28,14.80
2014,10,11,11,29,14.80
2014,10,11,11,30,14.80
2014,10,11,11,31,14.80
2014,10,11,11,32,14.90
2014,10,11,11,33,14.90
2014,10,11,11,34,14.90
2014,10,11,11,35,15.00
2014,10,11,11,36,15.00
2014,10,11,11,37,15.00
2014,10,11,11,38,15.00
2014,10,11,11,39,15.10
2014,10,11,11,40,15.10
2014,10,11,11,41,15.20
2014,10,11,11,42,15.20
2014,10,11,11,43,15.30
2014,10,11,11,44,15.30
2014,10,11,11,45,15.30
2014,10,11,11,46,15.30
2014,10,11,11,47,15.30
2014,10,11,11,48,15.30
2014,10,11,11,49,15.30
2014,10,11,11,50,15.20
2014,10,11,11,51,15.20
2014,10,11,11,52,15.10
2014,10,11,11,53,15.00
2014,10,11,11,54,14.80
2014,10,11,11,55,14.70
2014,10,11,11,56,14.50
2014,10,11,11,57,14.40
2014,10,11,11,58,14.30
2014,10,11,11,59,14.20
2014,10,11,12,00,14.10
2014,10,11,12,01,14.00
2014,10,11,12,02,13.90
2014,10,11,12,03,13.90
2014,10,11,12,04,13.80
2014,10,11,12,05,13.80
2014,10,11,12,06,13.70
2014,10,11,12,07,13.70
2014,10,11,12,08,13.60
2014,10,11,12,09,13.60
2014,10,11,12,10,13.60
2014,10,11,12,11,13.60
2014,10,11,12,12,13.60
2014,10,11,12,13,13.60
2014,10,11,12,14,13.60
2014,10,11,12,15,13.60
2014,10,11,12,16,13.60
2014,10,11,12,17,13.50
2014,10,11,12,18,13.50
2014,10,11,12,19,13.60
2014,10,11,12,20,13.70
2014,10,11,12,21,13.80
2014,10,11,12,22,13.80
2014,10,11,12,23,13.80
2014,10,11,12,24,13.80
2014,10,11,12,25,13.80
2014,10,11,12,26,13.80
2014,10,11,12,27,13.80
2014,10,11,12,28,13.80
2014,10,11,12,29,13.90
2014,10,11,12,30,13.90
2014,10,11,12,31,13.90
2014,10,11,12,32,14.00
2014,10,11,12,33,14.00
2014,10,11,12,34,14.10
2014,10,11,12,35,14.10
2014,10,11,12,36,14.20
2014,10,11,12,37,14.20
2014,10,11,12,38,14.20
2014,10,11,12,39,14.20
2014,10,11,12,40,14.30
2014,10,11,12,41,14.30
2014,10,11,12,42,14.30
2014,10,11,12,43,14.30
2014,10,11,12,44,14.30
2014,10,11,12,45,14.30
2014,10,11,12,46,14.30
2014,10,11,12,47,14.40
2014,10,11,12,48,14.40
2014,10,11,12,49,14.40
2014,10,11,12,50,14.40
2014,10,11,12,51,14.50
2014,10,11,12,52,14.50
2014,10,11,12,53,14.50
2014,10,11,12,54,14.50
2014,10,11,12,55,14.60
2014,10,11,12,56,14.60
2014,10,11,12,57,14.60
2014,10,11,12,58,14.70
2014,10,11,12,59,14.80
2014,10,11,13,00,14.90
2014,10,11,13,01,14.90
2014,10,11,13,02,15.00
2014,10,11,13,03,15.00
2014,10,11,13,04,15.10
2014,10,11,13,05,15.20
2014,10,11,13,06,15.30
2014,10,11,13,07,15.40
2014,10,11,13,08,15.40
2014,10,11,13,09,15.50
2014,10,11,13,10,15.60
2014,10,11,13,11,15.70
2014,10,11,13,12,15.80
2014,10,11,13,13,15.90
2014,10,11,13,14,16.00
2014,10,11,13,15,16.10
2014,10,11,13,16,16.20
2014,10,11,13,17,16.30
2014,10,11,13,18,16.40
2014,10,11,13,19,16.50
2014,10,11,13,20,16.70
2014,10,11,13,21,16.80
2014,10,11,13,22,16.90
2014,10,11,13,23,17.00
2014,10,11,13,24,17.00
2014,10,11,13,25,17.00
2014,10,11,13,26,17.00
2014,10,11,13,27,17.00
2014,10,11,13,28,17.10
2014,10,11,13,29,17.10
2014,10,11,13,30,17.20
2014,10,11,13,31,17.20
2014,10,11,13,32,17.20
2014,10,11,13,33,17.30
2014,10,11,13,34,17.30
2014,10,11,13,35,17.20
2014,10,11,13,36,17.20
2014,10,11,13,37,17.20
2014,10,11,13,38,17.20
2014,10,11,13,39,17.20
2014,10,11,13,40,17.30
2014,10,11,13,41,17.30
2014,10,11,13,42,17.40
2014,10,11,13,43,17.40
2014,10,11,13,44,17.50
2014,10,11,13,45,17.60
2014,10,11,13,46,17.60
2014,10,11,13,47,17.60
2014,10,11,13,48,17.60
2014,10,11,13,49,17.60
2014,10,11,13,50,17.60
2014,10,11,13,51,17.50
2014,10,11,13,52,17.50
2014,10,11,13,53,17.40
2014,10,11,13,54,17.40
2014,10,11,13,55,17.30
2014,10,11,13,56,17.30
2014,10,11,13,57,17.20
2014,10,11,13,58,17.20
2014,10,11,13,59,17.20
2014,10,11,14,00,17.20
2014,10,11,14,01,17.20
2014,10,11,14,02,17.20
2014,10,11,14,03,17.20
2014,10,11,14,04,17.30
2014,10,11,14,05,17.40
2014,10,11,14,06,17.60
2014,10,11,14,07,17.70
2014,10,11,14,08,17.80
2014,10,11,14,09,17.90
2014,10,11,14,10,18.00
2014,10,11,14,11,18.20
2014,10,11,14,12,18.20
2014,10,11,14,13,18.30
2014,10,11,14,14,18.40
2014,10,11,14,15,18.40
2014,10,11,14,16,18.40
2014,10,11,14,17,18.40
2014,10,11,14,18,18.50
2014,10,11,14,19,18.50
2014,10,11,14,20,18.50
2014,10,11,14,21,18.50
2014,10,11,14,22,18.40
2014,10,11,14,23,18.30
2014,10,11,14,24,18.30
2014,10,11,14,25,18.20
2014,10,11,14,26,18.10
2014,10,11,14,27,18.10
2014,10,11,14,28,18.10
2014,10,11,14,29,18.10
2014,10,11,14,30,18.10
2014,10,11,14,31,18.10
2014,10,11,14,32,18.10
2014,10,11,14,33,18.20
2014,10,11,14,34,18.20
2014,10,11,14,35,18.20
2014,10,11,14,36,18.20
2014,10,11,14,37,18.20
2014,10,11,14,38,18.20
2014,10,11,14,39,18.10
2014,10,11,14,40,18.00
2014,10,11,14,41,17.90
2014,10,11,14,42,17.90
2014,10,11,14,43,17.80
2014,10,11,14,44,17.80
2014,10,11,14,45,17.80
2014,10,11,14,46,17.80
2014,10,11,14,47,17.80
2014,10,11,14,48,17.80
2014,10,11,14,49,17.80
2014,10,11,14,50,17.80
2014,10,11,14,51,17.80
2014,10,11,14,52,17.90
2014,10,11,14,53,17.90
2014,10,11,14,54,17.80
2014,10,11,14,55,17.80
2014,10,11,14,56,17.70
2014,10,11,14,57,17.70
2014,10,11,14,58,17.70
2014,10,11,14,59,17.70
2014,10,11,15,00,17.70
2014,10,11,15,01,17.80
2014,10,11,15,02,17.80
2014,10,11,15,03,17.80
2014,10,11,15,04,17.80
2014,10,11,15,05,17.80
2014,10,11,15,06,17.80
2014,10,11,15,07,17.80
2014,10,11,15,08,17.70
2014,10,11,15,09,17.70
2014,10,11,15,10,17.60
2014,10,11,15,11,17.60
2014,10,11,15,12,17.60
2014,10,11,15,13,17.70
2014,10,11,15,14,17.70
2014,10,11,15,15,17.80
2014,10,11,15,16,17.90
2014,10,11,15,17,17.90
2014,10,11,15,18,18.00
2014,10,11,15,19,18.00
2014,10,11,15,20,18.00
2014,10,11,15,21,18.00
2014,10,11,15,22,18.00
2014,10,11,15,23,18.00
2014,10,11,15,24,18.10
2014,10,11,15,25,18.10
2014,10,11,15,26,18.20
2014,10,11,15,27,18.20
2014,10,11,15,28,18.20
2014,10,11,15,29,18.10
2014,10,11,15,30,18.00
2014,10,11,15,31,18.00
2014,10,11,15,32,17.90
2014,10,11,15,33,17.90
2014,10,11,15,34,17.90
2014,10,11,15,35,17.90
2014,10,11,15,36,17.90
2014,10,11,15,37,18.00
2014,10,11,15,38,18.00
2014,10,11,15,39,18.10
2014,10,11,15,40,18.10
2014,10,11,15,41,18.10
2014,10,11,15,42,18.10
2014,10,11,15,43,18.10
2014,10,11,15,44,18.20
2014,10,11,15,45,18.20
2014,10,11,15,46,18.20
2014,10,11,15,47,18.20
2014,10,11,15,48,18.20
2014,10,11,15,49,18.20
2014,10,11,15,50,18.10
2014,10,11,15,51,18.10
2014,10,11,15,52,18.00
2014,10,11,15,53,18.00
2014,10,11,15,54,17.80
2014,10,11,15,55,17.80
2014,10,11,15,56,17.70
2014,10,11,15,57,17.70
2014,10,11,15,58,17.70
2014,10,11,15,59,17.60
2014,10,11,16,00,17.60
2014,10,11,16,01,17.60
2014,10,11,16,02,17.60
2014,10,11,16,03,17.60
2014,10,11,16,04,17.50
2014,10,11,16,05,17.50
2014,10,11,16,06,17.50
2014,10,11,16,07,17.50
2014,10,11,16,08,17.50
2014,10,11,16,09,17.50
2014,10,11,16,10,17.50
2014,10,11,16,11,17.50
2014,10,11,16,12,17.50
2014,10,11,16,13,17.50
2014,10,11,16,14,17.40
2014,10,11,16,15,17.40
2014,10,11,16,16,17.40
2014,10,11,16,17,17.40
2014,10,11,16,18,17.40
2014,10,11,16,19,17.40
2014,10,11,16,20,17.40
2014,10,11,16,21,17.40
2014,10,11,16,22,17.40
2014,10,11,16,23,17.40
2014,10,11,16,24,17.40
2014,10,11,16,25,17.40
2014,10,11,16,26,17.30
2014,10,11,16,27,17.30
2014,10,11,16,28,17.30
2014,10,11,16,29,17.30
2014,10,11,16,30,17.30
2014,10,11,16,31,17.20
2014,10,11,16,32,17.20
2014,10,11,16,33,17.20
2014,10,11,16,34,17.20
2014,10,11,16,35,17.10
2014,10,11,16,36,17.10
2014,10,11,16,37,17.10
2014,10,11,16,38,17.00
2014,10,11,16,39,17.00
2014,10,11,16,40,16.90
2014,10,11,16,41,16.90
2014,10,11,16,42,16.80
2014,10,11,16,43,16.80
2014,10,11,16,44,16.70
2014,10,11,16,45,16.70
2014,10,11,16,46,16.70
2014,10,11,16,47,16.60
2014,10,11,16,48,16.60
2014,10,11,16,49,16.60
2014,10,11,16,50,16.60
2014,10,11,16,51,16.50
2014,10,11,16,52,16.50
2014,10,11,16,53,16.50
2014,10,11,16,54,16.40
2014,10,11,16,55,16.40
2014,10,11,16,56,16.40
2014,10,11,16,57,16.40
2014,10,11,16,58,16.40
2014,10,11,16,59,16.40
2014,10,11,17,00,16.40
2014,10,11,17,01,16.40
2014,10,11,17,02,16.40
2014,10,11,17,03,16.40
2014,10,11,17,04,16.40
2014,10,11,17,05,16.40
2014,10,11,17,06,16.40
2014,10,11,17,07,16.40
2014,10,11,17,08,16.30
2014,10,11,17,09,16.30
2014,10,11,17,10,16.30
2014,10,11,17,11,16.20
2014,10,11,17,12,16.20
2014,10,11,17,13,16.10
2014,10,11,17,14,16.00
2014,10,11,17,15,15.90
2014,10,11,17,16,15.90
2014,10,11,17,17,15.80
2014,10,11,17,18,15.70
2014,10,11,17,19,15.70
2014,10,11,17,20,15.60
2014,10,11,17,21,15.50
2014,10,11,17,22,15.40
2014,10,11,17,23,15.40
2014,10,11,17,24,15.30
2014,10,11,17,25,15.30
2014,10,11,17,26,15.20